owner,sensor,date,latitude,longitude,vertical_datum,wind_speed,wind_to_direction,wind_speed_of_gust,qcFlag 
LUMCON,ioos:station:LUMCON:105:1,2007-01-02T17:00:00Z,29.1874,-90.6654,1.0,5.1,50.0,7.7,'11111222,11111222,11111222' 
LUMCON,ioos:station:LUMCON:105:1,2007-01-02T18:00:00Z,29.1874,-90.6654,1.0,5.1,70.0,7.7,'11111222,11111222,11111222' 
LUMCON,ioos:station:LUMCON:105:1,2007-01-02T19:00:00Z,29.1874,-90.6654,1.0,4.1,60.0,6.7,'11111222,11111222,11111222' 
LUMCON,ioos:station:LUMCON:105:1,2007-01-02T20:00:00Z,29.1874,-90.6654,1.0,3.1,50.0,4.6,'11111222,11111222,11111222' 
LUMCON,ioos:station:LUMCON:105:1,2007-01-02T21:00:00Z,29.1874,-90.6654,1.0,2.6,70.0,4.1,'11111222,11111222,11111222' 
LUMCON,ioos:station:LUMCON:105:1,2007-01-02T22:00:00Z,29.1874,-90.6654,1.0,2.6,100.0,3.1,'11111222,11111222,11111222' 
LUMCON,ioos:station:LUMCON:105:1,2007-01-02T23:00:00Z,29.1874,-90.6654,1.0,2.1,90.0,4.6,'11111222,11111222,11111222' 
LUMCON,ioos:station:LUMCON:105:1,2007-01-03T00:00:00Z,29.1874,-90.6654,1.0,3.1,90.0,5.7,'11111222,11111222,11111222' 
LUMCON,ioos:station:LUMCON:105:1,2007-01-03T01:00:00Z,29.1874,-90.6654,1.0,3.1,80.0,6.2,'11111222,11111222,11111222' 
LUMCON,ioos:station:LUMCON:105:1,2007-01-03T02:00:00Z,29.1874,-90.6654,1.0,4.1,80.0,6.7,'11111222,11111222,11111222' 
LUMCON,ioos:station:LUMCON:105:1,2007-01-03T03:00:00Z,29.1874,-90.6654,1.0,4.6,90.0,7.2,'11111222,11111222,11111222' 
LUMCON,ioos:station:LUMCON:105:1,2007-01-03T04:00:00Z,29.1874,-90.6654,1.0,3.1,70.0,6.2,'11111222,11111222,11111222' 
LUMCON,ioos:station:LUMCON:105:1,2007-01-03T05:00:00Z,29.1874,-90.6654,1.0,3.6,60.0,5.1,'11111222,11111222,11111222' 
LUMCON,ioos:station:LUMCON:105:1,2007-01-03T06:00:00Z,29.1874,-90.6654,1.0,3.1,70.0,4.6,'11111222,11111222,11111222' 
LUMCON,ioos:station:LUMCON:105:1,2007-01-03T07:00:00Z,29.1874,-90.6654,1.0,2.1,50.0,3.1,'11111222,11111222,11111222' 
LUMCON,ioos:station:LUMCON:105:1,2007-01-03T08:00:00Z,29.1874,-90.6654,1.0,2.1,10.0,3.6,'11111222,11111222,11111222' 
LUMCON,ioos:station:LUMCON:105:1,2007-01-03T09:00:00Z,29.1874,-90.6654,1.0,3.1,10.0,4.1,'11111222,11111222,11111222' 
LUMCON,ioos:station:LUMCON:105:1,2007-01-03T10:00:00Z,29.1874,-90.6654,1.0,3.1,350.0,4.6,'11111222,11111222,11111222' 
LUMCON,ioos:station:LUMCON:105:1,2007-01-03T11:00:00Z,29.1874,-90.6654,1.0,2.6,340.0,4.1,'11111222,11111222,11111222' 
LUMCON,ioos:station:LUMCON:105:1,2007-01-03T12:00:00Z,29.1874,-90.6654,1.0,3.6,20.0,4.6,'11111222,11111222,11111222' 
LUMCON,ioos:station:LUMCON:105:1,2007-01-03T13:00:00Z,29.1874,-90.6654,1.0,3.6,10.0,6.2,'11111222,11111222,11111222' 
LUMCON,ioos:station:LUMCON:105:1,2007-01-03T14:00:00Z,29.1874,-90.6654,1.0,4.1,20.0,5.1,'11111222,11111222,11111222' 
LUMCON,ioos:station:LUMCON:105:1,2007-01-03T15:00:00Z,29.1874,-90.6654,1.0,5.1,30.0,7.2,'11111222,11111222,11111222' 
LUMCON,ioos:station:LUMCON:105:1,2007-01-03T16:00:00Z,29.1874,-90.6654,1.0,4.6,40.0,6.7,'11111222,11111222,11111222' 
LUMCON,ioos:station:LUMCON:105:1,2007-01-03T17:00:00Z,29.1874,-90.6654,1.0,4.1,30.0,5.7,'11111222,11111222,11111222' 
LUMCON,ioos:station:LUMCON:105:1,2007-01-03T18:00:00Z,29.1874,-90.6654,1.0,3.6,30.0,5.1,'11111222,11111222,11111222' 
LUMCON,ioos:station:LUMCON:105:1,2007-01-03T19:00:00Z,29.1874,-90.6654,1.0,3.6,50.0,5.1,'11111222,11111222,11111222' 
LUMCON,ioos:station:LUMCON:105:1,2007-01-03T20:00:00Z,29.1874,-90.6654,1.0,3.6,60.0,7.2,'11111222,11111222,11111222' 
LUMCON,ioos:station:LUMCON:105:1,2007-01-03T21:00:00Z,29.1874,-90.6654,1.0,4.1,80.0,6.7,'11111222,11111222,11111222' 
LUMCON,ioos:station:LUMCON:105:1,2007-01-03T22:00:00Z,29.1874,-90.6654,1.0,3.6,100.0,5.7,'11111222,11111222,11111222' 
LUMCON,ioos:station:LUMCON:105:1,2007-01-03T23:00:00Z,29.1874,-90.6654,1.0,3.1,70.0,4.6,'11111222,11111222,11111222' 
LUMCON,ioos:station:LUMCON:105:1,2007-01-04T00:00:00Z,29.1874,-90.6654,1.0,3.6,80.0,5.7,'11111222,11111222,11111222' 
LUMCON,ioos:station:LUMCON:105:1,2007-01-04T01:00:00Z,29.1874,-90.6654,1.0,4.1,90.0,6.7,'11111222,11111222,11111222' 
LUMCON,ioos:station:LUMCON:105:1,2007-01-04T02:00:00Z,29.1874,-90.6654,1.0,5.7,100.0,8.8,'11111222,11111222,11111222' 
LUMCON,ioos:station:LUMCON:105:1,2007-01-04T03:00:00Z,29.1874,-90.6654,1.0,5.7,100.0,8.2,'11111222,11111222,11111222' 
LUMCON,ioos:station:LUMCON:105:1,2007-01-04T04:00:00Z,29.1874,-90.6654,1.0,5.7,70.0,9.3,'11111222,11111222,11111222' 
LUMCON,ioos:station:LUMCON:105:1,2007-01-04T05:00:00Z,29.1874,-90.6654,1.0,5.1,40.0,7.2,'11111222,11111222,11111222' 
LUMCON,ioos:station:LUMCON:105:1,2007-01-04T06:00:00Z,29.1874,-90.6654,1.0,5.7,70.0,9.8,'11111222,11111222,11111222' 
LUMCON,ioos:station:LUMCON:105:1,2007-01-04T07:00:00Z,29.1874,-90.6654,1.0,6.2,90.0,9.3,'11111222,11111222,11111222' 
LUMCON,ioos:station:LUMCON:105:1,2007-01-04T08:00:00Z,29.1874,-90.6654,1.0,6.2,80.0,9.3,'11111222,11111222,11111222' 
LUMCON,ioos:station:LUMCON:105:1,2007-01-04T09:00:00Z,29.1874,-90.6654,1.0,5.7,90.0,7.7,'11111222,11111222,11111222' 
LUMCON,ioos:station:LUMCON:105:1,2007-01-04T10:00:00Z,29.1874,-90.6654,1.0,4.1,80.0,6.2,'11111222,11111222,11111222' 
LUMCON,ioos:station:LUMCON:105:1,2007-01-04T11:00:00Z,29.1874,-90.6654,1.0,4.1,80.0,6.7,'11111222,11111222,11111222' 
LUMCON,ioos:station:LUMCON:105:1,2007-01-04T12:00:00Z,29.1874,-90.6654,1.0,5.1,90.0,6.7,'11111222,11111222,11111222' 
LUMCON,ioos:station:LUMCON:105:1,2007-01-04T13:00:00Z,29.1874,-90.6654,1.0,4.6,80.0,8.2,'11111222,11111222,11111222' 
LUMCON,ioos:station:LUMCON:105:1,2007-01-04T14:00:00Z,29.1874,-90.6654,1.0,5.1,90.0,7.7,'11111222,11111222,11111222' 
LUMCON,ioos:station:LUMCON:105:1,2007-01-04T15:00:00Z,29.1874,-90.6654,1.0,5.7,100.0,8.2,'11111222,11111222,11111222' 
LUMCON,ioos:station:LUMCON:105:1,2007-01-04T16:00:00Z,29.1874,-90.6654,1.0,5.7,120.0,8.8,'11111222,11111222,11111222' 
LUMCON,ioos:station:LUMCON:105:1,2007-01-04T17:00:00Z,29.1874,-90.6654,1.0,6.2,130.0,7.7,'11111222,11111222,11111222' 
LUMCON,ioos:station:LUMCON:105:1,2007-01-04T19:00:00Z,29.1874,-90.6654,1.0,5.7,160.0,6.7,'11111222,11111222,11111222' 
LUMCON,ioos:station:LUMCON:105:1,2007-01-04T20:00:00Z,29.1874,-90.6654,1.0,6.2,160.0,7.2,'11111222,11111222,11111222' 
LUMCON,ioos:station:LUMCON:105:1,2007-01-04T21:00:00Z,29.1874,-90.6654,1.0,7.2,150.0,8.8,'11111222,11111222,11111222' 
LUMCON,ioos:station:LUMCON:105:1,2007-01-04T22:00:00Z,29.1874,-90.6654,1.0,6.7,150.0,8.2,'11111222,11111222,11111222' 
LUMCON,ioos:station:LUMCON:105:1,2007-01-04T23:00:00Z,29.1874,-90.6654,1.0,6.2,160.0,7.2,'11111222,11111222,11111222' 
LUMCON,ioos:station:LUMCON:105:1,2007-01-05T00:00:00Z,29.1874,-90.6654,1.0,7.7,160.0,9.8,'11111222,11111222,11111222' 
LUMCON,ioos:station:LUMCON:105:1,2007-01-05T01:00:00Z,29.1874,-90.6654,1.0,9.8,160.0,12.9,'11111222,11111222,11111222' 
LUMCON,ioos:station:LUMCON:105:1,2007-01-05T02:00:00Z,29.1874,-90.6654,1.0,7.2,270.0,9.8,'11111222,11111222,11111222' 
LUMCON,ioos:station:LUMCON:105:1,2007-01-05T03:00:00Z,29.1874,-90.6654,1.0,5.7,230.0,9.8,'11111222,11111222,11111222' 
LUMCON,ioos:station:LUMCON:105:1,2007-01-05T04:00:00Z,29.1874,-90.6654,1.0,6.7,290.0,9.8,'11111222,11111222,11111222' 
LUMCON,ioos:station:LUMCON:105:1,2007-01-05T05:00:00Z,29.1874,-90.6654,1.0,5.7,300.0,8.2,'11111222,11111222,11111222' 
LUMCON,ioos:station:LUMCON:105:1,2007-01-05T06:00:00Z,29.1874,-90.6654,1.0,3.1,310.0,5.1,'11111222,11111222,11111222' 
LUMCON,ioos:station:LUMCON:105:1,2007-01-05T07:00:00Z,29.1874,-90.6654,1.0,1.5,250.0,2.6,'11111222,11111222,11111222' 
LUMCON,ioos:station:LUMCON:105:1,2007-01-05T08:00:00Z,29.1874,-90.6654,1.0,3.6,160.0,5.1,'11111222,11111222,11111222' 
LUMCON,ioos:station:LUMCON:105:1,2007-01-05T09:00:00Z,29.1874,-90.6654,1.0,3.6,180.0,6.2,'11111222,11111222,11111222' 
LUMCON,ioos:station:LUMCON:105:1,2007-01-05T10:00:00Z,29.1874,-90.6654,1.0,4.1,210.0,5.1,'11111222,11111222,11111222' 
LUMCON,ioos:station:LUMCON:105:1,2007-01-05T11:00:00Z,29.1874,-90.6654,1.0,4.1,220.0,5.1,'11111222,11111222,11111222' 
LUMCON,ioos:station:LUMCON:105:1,2007-01-05T12:00:00Z,29.1874,-90.6654,1.0,2.6,230.0,3.6,'11111222,11111222,11111222' 
LUMCON,ioos:station:LUMCON:105:1,2007-01-05T13:00:00Z,29.1874,-90.6654,1.0,2.6,270.0,3.6,'11111222,11111222,11111222' 
LUMCON,ioos:station:LUMCON:105:1,2007-01-05T14:00:00Z,29.1874,-90.6654,1.0,1.5,290.0,3.1,'11111222,11111222,11111222' 
LUMCON,ioos:station:LUMCON:105:1,2007-01-05T15:00:00Z,29.1874,-90.6654,1.0,2.1,290.0,3.6,'11111222,11111222,11111222' 
LUMCON,ioos:station:LUMCON:105:1,2007-01-06T00:00:00Z,29.1874,-90.6654,1.0,5.1,130.0,6.7,'11111222,11111222,11111222' 
LUMCON,ioos:station:LUMCON:105:1,2007-01-06T01:00:00Z,29.1874,-90.6654,1.0,4.6,140.0,6.7,'11111222,11111222,11111222' 
LUMCON,ioos:station:LUMCON:105:1,2007-01-06T02:00:00Z,29.1874,-90.6654,1.0,5.1,150.0,6.7,'11111222,11111222,11111222' 
LUMCON,ioos:station:LUMCON:105:1,2007-01-06T03:00:00Z,29.1874,-90.6654,1.0,5.7,150.0,7.2,'11111222,11111222,11111222' 
LUMCON,ioos:station:LUMCON:105:1,2007-01-06T04:00:00Z,29.1874,-90.6654,1.0,3.6,150.0,5.1,'11111222,11111222,11111222' 
LUMCON,ioos:station:LUMCON:105:1,2007-01-06T05:00:00Z,29.1874,-90.6654,1.0,3.1,150.0,4.6,'11111222,11111222,11111222' 
LUMCON,ioos:station:LUMCON:105:1,2007-01-06T06:00:00Z,29.1874,-90.6654,1.0,2.6,160.0,4.1,'11111222,11111222,11111222' 
LUMCON,ioos:station:LUMCON:105:1,2007-01-06T07:00:00Z,29.1874,-90.6654,1.0,3.6,160.0,5.7,'11111222,11111222,11111222' 
LUMCON,ioos:station:LUMCON:105:1,2007-01-06T08:00:00Z,29.1874,-90.6654,1.0,2.6,150.0,3.1,'11111222,11111222,11111222' 
LUMCON,ioos:station:LUMCON:105:1,2007-01-06T09:00:00Z,29.1874,-90.6654,1.0,1.0,100.0,2.1,'11111222,11111222,11111222' 
LUMCON,ioos:station:LUMCON:105:1,2007-01-06T10:00:00Z,29.1874,-90.6654,1.0,2.1,80.0,3.1,'11111222,11111222,11111222' 
LUMCON,ioos:station:LUMCON:105:1,2007-01-06T11:00:00Z,29.1874,-90.6654,1.0,1.5,70.0,2.1,'11111222,11111222,11111222' 
LUMCON,ioos:station:LUMCON:105:1,2007-01-06T12:00:00Z,29.1874,-90.6654,1.0,1.5,80.0,3.6,'11111222,11111222,11111222' 
LUMCON,ioos:station:LUMCON:105:1,2007-01-06T13:00:00Z,29.1874,-90.6654,1.0,1.5,60.0,2.6,'11111222,11111222,11111222' 
LUMCON,ioos:station:LUMCON:105:1,2007-01-06T14:00:00Z,29.1874,-90.6654,1.0,2.1,70.0,4.1,'11111222,11111222,11111222' 
LUMCON,ioos:station:LUMCON:105:1,2007-01-06T15:00:00Z,29.1874,-90.6654,1.0,3.1,70.0,4.1,'11111222,11111222,11111222' 
LUMCON,ioos:station:LUMCON:105:1,2007-01-06T16:00:00Z,29.1874,-90.6654,1.0,3.1,30.0,4.1,'11111222,11111222,11111222' 
LUMCON,ioos:station:LUMCON:105:1,2007-01-06T17:00:00Z,29.1874,-90.6654,1.0,3.6,40.0,5.7,'11111222,11111222,11111222' 
LUMCON,ioos:station:LUMCON:105:1,2007-01-06T18:00:00Z,29.1874,-90.6654,1.0,4.1,40.0,5.7,'11111222,11111222,11111222' 
LUMCON,ioos:station:LUMCON:105:1,2007-01-06T19:00:00Z,29.1874,-90.6654,1.0,4.6,40.0,6.7,'11111222,11111222,11111222' 
LUMCON,ioos:station:LUMCON:105:1,2007-01-06T20:00:00Z,29.1874,-90.6654,1.0,4.6,80.0,6.2,'11111222,11111222,11111222' 
LUMCON,ioos:station:LUMCON:105:1,2007-01-06T21:00:00Z,29.1874,-90.6654,1.0,5.1,70.0,7.7,'11111222,11111222,11111222' 
LUMCON,ioos:station:LUMCON:105:1,2007-01-06T22:00:00Z,29.1874,-90.6654,1.0,4.6,90.0,7.2,'11111222,11111222,11111222' 
LUMCON,ioos:station:LUMCON:105:1,2007-01-06T23:00:00Z,29.1874,-90.6654,1.0,4.6,90.0,7.2,'11111222,11111222,11111222' 
LUMCON,ioos:station:LUMCON:105:1,2007-01-07T00:00:00Z,29.1874,-90.6654,1.0,3.1,90.0,5.7,'11111222,11111222,11111222' 
LUMCON,ioos:station:LUMCON:105:1,2007-01-07T01:00:00Z,29.1874,-90.6654,1.0,5.1,80.0,7.2,'11111222,11111222,11111222' 
LUMCON,ioos:station:LUMCON:105:1,2007-01-07T02:00:00Z,29.1874,-90.6654,1.0,4.1,100.0,5.7,'11111222,11111222,11111222' 
LUMCON,ioos:station:LUMCON:105:1,2007-01-07T03:00:00Z,29.1874,-90.6654,1.0,4.6,110.0,6.2,'11111222,11111222,11111222' 
LUMCON,ioos:station:LUMCON:105:1,2007-01-07T04:00:00Z,29.1874,-90.6654,1.0,4.1,110.0,7.2,'11111222,11111222,11111222' 
LUMCON,ioos:station:LUMCON:105:1,2007-01-07T05:00:00Z,29.1874,-90.6654,1.0,3.6,110.0,5.1,'11111222,11111222,11111222' 
LUMCON,ioos:station:LUMCON:105:1,2007-01-07T06:00:00Z,29.1874,-90.6654,1.0,4.1,110.0,5.7,'11111222,11111222,11111222' 
LUMCON,ioos:station:LUMCON:105:1,2007-01-07T07:00:00Z,29.1874,-90.6654,1.0,3.6,140.0,4.6,'11111222,11111222,11111222' 
LUMCON,ioos:station:LUMCON:105:1,2007-01-07T08:00:00Z,29.1874,-90.6654,1.0,3.1,160.0,4.6,'11111222,11111222,11111222' 
LUMCON,ioos:station:LUMCON:105:1,2007-01-07T09:00:00Z,29.1874,-90.6654,1.0,4.6,180.0,6.2,'11111222,11111222,11111222' 
LUMCON,ioos:station:LUMCON:105:1,2007-01-07T10:00:00Z,29.1874,-90.6654,1.0,4.6,170.0,6.2,'11111222,11111222,11111222' 
LUMCON,ioos:station:LUMCON:105:1,2007-01-07T11:00:00Z,29.1874,-90.6654,1.0,4.6,180.0,6.2,'11111222,11111222,11111222' 
LUMCON,ioos:station:LUMCON:105:1,2007-01-08T22:00:00Z,29.1874,-90.6654,1.0,5.1,330.0,7.7,'11111222,11111222,11111222' 
LUMCON,ioos:station:LUMCON:105:1,2007-01-08T23:00:00Z,29.1874,-90.6654,1.0,4.1,320.0,5.7,'11111222,11111222,11111222' 
LUMCON,ioos:station:LUMCON:105:1,2007-01-09T00:00:00Z,29.1874,-90.6654,1.0,3.1,320.0,4.1,'11111222,11111222,11111222' 
LUMCON,ioos:station:LUMCON:105:1,2007-01-09T01:00:00Z,29.1874,-90.6654,1.0,3.1,310.0,5.1,'11111222,11111222,11111222' 
LUMCON,ioos:station:LUMCON:105:1,2007-01-09T02:00:00Z,29.1874,-90.6654,1.0,2.6,320.0,3.6,'11111222,11111222,11111222' 
LUMCON,ioos:station:LUMCON:105:1,2007-01-09T03:00:00Z,29.1874,-90.6654,1.0,3.1,330.0,4.6,'11111222,11111222,11111222' 
LUMCON,ioos:station:LUMCON:105:1,2007-01-09T04:00:00Z,29.1874,-90.6654,1.0,3.1,330.0,4.1,'11111222,11111222,11111222' 
LUMCON,ioos:station:LUMCON:105:1,2007-01-09T05:00:00Z,29.1874,-90.6654,1.0,4.1,340.0,5.7,'11111222,11111222,11111222' 
LUMCON,ioos:station:LUMCON:105:1,2007-01-09T06:00:00Z,29.1874,-90.6654,1.0,4.1,310.0,6.2,'11111222,11111222,11111222' 
LUMCON,ioos:station:LUMCON:105:1,2007-01-09T07:00:00Z,29.1874,-90.6654,1.0,4.1,330.0,6.2,'11111222,11111222,11111222' 
LUMCON,ioos:station:LUMCON:105:1,2007-01-09T08:00:00Z,29.1874,-90.6654,1.0,3.1,340.0,5.1,'11111222,11111222,11111222' 
LUMCON,ioos:station:LUMCON:105:1,2007-01-09T09:00:00Z,29.1874,-90.6654,1.0,3.1,340.0,5.1,'11111222,11111222,11111222' 
LUMCON,ioos:station:LUMCON:105:1,2007-01-09T10:00:00Z,29.1874,-90.6654,1.0,1.5,340.0,3.6,'11111222,11111222,11111222' 
LUMCON,ioos:station:LUMCON:105:1,2007-01-09T11:00:00Z,29.1874,-90.6654,1.0,3.6,330.0,4.6,'11111222,11111222,11111222' 
LUMCON,ioos:station:LUMCON:105:1,2007-01-09T12:00:00Z,29.1874,-90.6654,1.0,3.6,320.0,5.1,'11111222,11111222,11111222' 
LUMCON,ioos:station:LUMCON:105:1,2007-01-09T13:00:00Z,29.1874,-90.6654,1.0,3.6,310.0,4.6,'11111222,11111222,11111222' 
LUMCON,ioos:station:LUMCON:105:1,2007-01-09T14:00:00Z,29.1874,-90.6654,1.0,3.1,310.0,4.6,'11111222,11111222,11111222' 
LUMCON,ioos:station:LUMCON:105:1,2007-01-09T15:00:00Z,29.1874,-90.6654,1.0,4.6,320.0,6.2,'11111222,11111222,11111222' 
LUMCON,ioos:station:LUMCON:105:1,2007-01-09T16:00:00Z,29.1874,-90.6654,1.0,5.7,330.0,7.7,'11111222,11111222,11111222' 
LUMCON,ioos:station:LUMCON:105:1,2007-01-09T17:00:00Z,29.1874,-90.6654,1.0,5.7,330.0,7.2,'11111222,11111222,11111222' 
LUMCON,ioos:station:LUMCON:105:1,2007-01-09T18:00:00Z,29.1874,-90.6654,1.0,5.7,340.0,8.2,'11111222,11111222,11111222' 
LUMCON,ioos:station:LUMCON:105:1,2007-01-09T19:00:00Z,29.1874,-90.6654,1.0,5.7,340.0,7.7,'11111222,11111222,11111222' 
LUMCON,ioos:station:LUMCON:105:1,2007-01-09T20:00:00Z,29.1874,-90.6654,1.0,5.1,340.0,9.8,'11111222,11111222,11111222' 
LUMCON,ioos:station:LUMCON:105:1,2007-01-09T21:00:00Z,29.1874,-90.6654,1.0,5.7,310.0,9.8,'11111222,11111222,11111222' 
LUMCON,ioos:station:LUMCON:105:1,2007-01-09T22:00:00Z,29.1874,-90.6654,1.0,6.2,320.0,8.8,'11111222,11111222,11111222' 
LUMCON,ioos:station:LUMCON:105:1,2007-01-09T23:00:00Z,29.1874,-90.6654,1.0,4.6,310.0,9.3,'11111222,11111222,11111222' 
LUMCON,ioos:station:LUMCON:105:1,2007-01-10T00:00:00Z,29.1874,-90.6654,1.0,4.6,300.0,8.8,'11111222,11111222,11111222' 
LUMCON,ioos:station:LUMCON:105:1,2007-01-10T01:00:00Z,29.1874,-90.6654,1.0,3.6,310.0,5.7,'11111222,11111222,11111222' 
LUMCON,ioos:station:LUMCON:105:1,2007-01-10T02:00:00Z,29.1874,-90.6654,1.0,3.6,330.0,4.6,'11111222,11111222,11111222' 
LUMCON,ioos:station:LUMCON:105:1,2007-01-10T03:00:00Z,29.1874,-90.6654,1.0,4.6,350.0,6.2,'11111222,11111222,11111222' 
LUMCON,ioos:station:LUMCON:105:1,2007-01-10T04:00:00Z,29.1874,-90.6654,1.0,4.1,360.0,6.2,'11111222,11144222,11111222' 
LUMCON,ioos:station:LUMCON:105:1,2007-01-10T05:00:00Z,29.1874,-90.6654,1.0,4.6,10.0,7.2,'11111222,11111222,11111222' 
LUMCON,ioos:station:LUMCON:105:1,2007-01-10T06:00:00Z,29.1874,-90.6654,1.0,4.6,20.0,6.7,'11111222,11111222,11111222' 
LUMCON,ioos:station:LUMCON:105:1,2007-01-10T07:00:00Z,29.1874,-90.6654,1.0,4.1,20.0,7.2,'11111222,11111222,11111222' 
LUMCON,ioos:station:LUMCON:105:1,2007-01-10T08:00:00Z,29.1874,-90.6654,1.0,5.1,30.0,8.8,'11111222,11111222,11111222' 
LUMCON,ioos:station:LUMCON:105:1,2007-01-10T09:00:00Z,29.1874,-90.6654,1.0,5.1,30.0,8.8,'11111222,11111222,11111222' 
LUMCON,ioos:station:LUMCON:105:1,2007-01-10T10:00:00Z,29.1874,-90.6654,1.0,6.2,40.0,9.8,'11111222,11111222,11111222' 
LUMCON,ioos:station:LUMCON:105:1,2007-01-10T11:00:00Z,29.1874,-90.6654,1.0,6.7,50.0,9.8,'11111222,11111222,11111222' 
LUMCON,ioos:station:LUMCON:105:1,2007-01-10T12:00:00Z,29.1874,-90.6654,1.0,7.2,60.0,9.3,'11111222,11111222,11111222' 
LUMCON,ioos:station:LUMCON:105:1,2007-01-10T13:00:00Z,29.1874,-90.6654,1.0,7.7,70.0,9.8,'11111222,11111222,11111222' 
LUMCON,ioos:station:LUMCON:105:1,2007-01-10T14:00:00Z,29.1874,-90.6654,1.0,6.7,70.0,9.8,'11111222,11111222,11111222' 
LUMCON,ioos:station:LUMCON:105:1,2007-01-10T15:00:00Z,29.1874,-90.6654,1.0,6.7,70.0,9.8,'11111222,11111222,11111222' 
LUMCON,ioos:station:LUMCON:105:1,2007-01-10T16:00:00Z,29.1874,-90.6654,1.0,6.7,70.0,9.8,'11111222,11111222,11111222' 
LUMCON,ioos:station:LUMCON:105:1,2007-01-10T17:00:00Z,29.1874,-90.6654,1.0,6.2,80.0,9.8,'11111222,11111222,11111222' 
LUMCON,ioos:station:LUMCON:105:1,2007-01-10T18:00:00Z,29.1874,-90.6654,1.0,5.7,80.0,9.8,'11111222,11111222,11111222' 
LUMCON,ioos:station:LUMCON:105:1,2007-01-10T19:00:00Z,29.1874,-90.6654,1.0,5.1,90.0,8.2,'11111222,11111222,11111222' 
LUMCON,ioos:station:LUMCON:105:1,2007-01-10T20:00:00Z,29.1874,-90.6654,1.0,5.1,90.0,7.7,'11111222,11111222,11111222' 
LUMCON,ioos:station:LUMCON:105:1,2007-01-10T21:00:00Z,29.1874,-90.6654,1.0,5.7,90.0,7.2,'11111222,11111222,11111222' 
LUMCON,ioos:station:LUMCON:105:1,2007-01-10T22:00:00Z,29.1874,-90.6654,1.0,6.2,100.0,8.2,'11111222,11111222,11111222' 
LUMCON,ioos:station:LUMCON:105:1,2007-01-10T23:00:00Z,29.1874,-90.6654,1.0,4.6,80.0,7.2,'11111222,11111222,11111222' 
LUMCON,ioos:station:LUMCON:105:1,2007-01-11T00:00:00Z,29.1874,-90.6654,1.0,4.6,80.0,7.7,'11111222,11111222,11111222' 
LUMCON,ioos:station:LUMCON:105:1,2007-01-11T01:00:00Z,29.1874,-90.6654,1.0,5.1,80.0,8.2,'11111222,11111222,11111222' 
LUMCON,ioos:station:LUMCON:105:1,2007-01-11T02:00:00Z,29.1874,-90.6654,1.0,5.7,90.0,8.2,'11111222,11111222,11111222' 
LUMCON,ioos:station:LUMCON:105:1,2007-01-11T03:00:00Z,29.1874,-90.6654,1.0,4.6,80.0,7.7,'11111222,11111222,11111222' 
LUMCON,ioos:station:LUMCON:105:1,2007-01-11T04:00:00Z,29.1874,-90.6654,1.0,5.1,90.0,8.8,'11111222,11111222,11111222' 
LUMCON,ioos:station:LUMCON:105:1,2007-01-11T05:00:00Z,29.1874,-90.6654,1.0,5.1,90.0,8.8,'11111222,11111222,11111222' 
LUMCON,ioos:station:LUMCON:105:1,2007-01-11T06:00:00Z,29.1874,-90.6654,1.0,6.2,90.0,9.3,'11111222,11111222,11111222' 
LUMCON,ioos:station:LUMCON:105:1,2007-01-11T07:00:00Z,29.1874,-90.6654,1.0,4.6,70.0,6.7,'11111222,11111222,11111222' 
LUMCON,ioos:station:LUMCON:105:1,2007-01-11T08:00:00Z,29.1874,-90.6654,1.0,5.1,70.0,7.2,'11111222,11111222,11111222' 
LUMCON,ioos:station:LUMCON:105:1,2007-01-11T09:00:00Z,29.1874,-90.6654,1.0,4.1,70.0,6.2,'11111222,11111222,11111222' 
LUMCON,ioos:station:LUMCON:105:1,2007-01-11T10:00:00Z,29.1874,-90.6654,1.0,4.6,70.0,6.7,'11111222,11111222,11111222' 
LUMCON,ioos:station:LUMCON:105:1,2007-01-11T11:00:00Z,29.1874,-90.6654,1.0,4.6,60.0,6.7,'11111222,11111222,11111222' 
LUMCON,ioos:station:LUMCON:105:1,2007-01-11T13:00:00Z,29.1874,-90.6654,1.0,4.6,80.0,7.2,'11111222,11111222,11111222' 
LUMCON,ioos:station:LUMCON:105:1,2007-01-11T14:00:00Z,29.1874,-90.6654,1.0,4.6,80.0,6.7,'11111222,11111222,11111222' 
LUMCON,ioos:station:LUMCON:105:1,2007-01-11T15:00:00Z,29.1874,-90.6654,1.0,4.1,90.0,6.2,'11111222,11111222,11111222' 
LUMCON,ioos:station:LUMCON:105:1,2007-01-11T16:00:00Z,29.1874,-90.6654,1.0,4.6,100.0,6.7,'11111222,11111222,11111222' 
LUMCON,ioos:station:LUMCON:105:1,2007-01-11T17:00:00Z,29.1874,-90.6654,1.0,5.1,100.0,7.2,'11111222,11111222,11111222' 
LUMCON,ioos:station:LUMCON:105:1,2007-01-11T18:00:00Z,29.1874,-90.6654,1.0,4.6,110.0,6.7,'11111222,11111222,11111222' 
LUMCON,ioos:station:LUMCON:105:1,2007-01-11T19:00:00Z,29.1874,-90.6654,1.0,3.6,110.0,6.2,'11111222,11111222,11111222' 
LUMCON,ioos:station:LUMCON:105:1,2007-01-11T20:00:00Z,29.1874,-90.6654,1.0,4.6,110.0,7.7,'11111222,11111222,11111222' 
LUMCON,ioos:station:LUMCON:105:1,2007-01-11T21:00:00Z,29.1874,-90.6654,1.0,5.7,120.0,7.2,'11111222,11111222,11111222' 
LUMCON,ioos:station:LUMCON:105:1,2007-01-11T22:00:00Z,29.1874,-90.6654,1.0,5.7,120.0,7.7,'11111222,11111222,11111222' 
LUMCON,ioos:station:LUMCON:105:1,2007-01-11T23:00:00Z,29.1874,-90.6654,1.0,5.7,130.0,7.2,'11111222,11111222,11111222' 
LUMCON,ioos:station:LUMCON:105:1,2007-01-12T00:00:00Z,29.1874,-90.6654,1.0,5.7,120.0,7.7,'11111222,11111222,11111222' 
LUMCON,ioos:station:LUMCON:105:1,2007-01-12T01:00:00Z,29.1874,-90.6654,1.0,4.6,110.0,6.2,'11111222,11111222,11111222' 
LUMCON,ioos:station:LUMCON:105:1,2007-01-12T02:00:00Z,29.1874,-90.6654,1.0,5.7,120.0,7.7,'11111222,11111222,11111222' 
LUMCON,ioos:station:LUMCON:105:1,2007-01-12T03:00:00Z,29.1874,-90.6654,1.0,5.1,120.0,6.7,'11111222,11111222,11111222' 
LUMCON,ioos:station:LUMCON:105:1,2007-01-12T04:00:00Z,29.1874,-90.6654,1.0,5.1,120.0,6.7,'11111222,11111222,11111222' 
LUMCON,ioos:station:LUMCON:105:1,2007-01-12T05:00:00Z,29.1874,-90.6654,1.0,5.1,120.0,6.2,'11111222,11111222,11111222' 
LUMCON,ioos:station:LUMCON:105:1,2007-01-12T06:00:00Z,29.1874,-90.6654,1.0,3.6,110.0,4.6,'11111222,11111222,11111222' 
LUMCON,ioos:station:LUMCON:105:1,2007-01-12T07:00:00Z,29.1874,-90.6654,1.0,3.1,110.0,4.6,'11111222,11111222,11111222' 
LUMCON,ioos:station:LUMCON:105:1,2007-01-12T08:00:00Z,29.1874,-90.6654,1.0,4.6,120.0,5.7,'11111222,11111222,11111222' 
LUMCON,ioos:station:LUMCON:105:1,2007-01-12T09:00:00Z,29.1874,-90.6654,1.0,4.6,120.0,6.2,'11111222,11111222,11111222' 
LUMCON,ioos:station:LUMCON:105:1,2007-01-12T10:00:00Z,29.1874,-90.6654,1.0,4.1,120.0,5.7,'11111222,11111222,11111222' 
LUMCON,ioos:station:LUMCON:105:1,2007-01-12T11:00:00Z,29.1874,-90.6654,1.0,3.6,110.0,4.6,'11111222,11111222,11111222' 
LUMCON,ioos:station:LUMCON:105:1,2007-01-12T12:00:00Z,29.1874,-90.6654,1.0,2.6,80.0,3.6,'11111222,11111222,11111222' 
LUMCON,ioos:station:LUMCON:105:1,2007-01-12T13:00:00Z,29.1874,-90.6654,1.0,2.6,70.0,3.6,'11111222,11111222,11111222' 
LUMCON,ioos:station:LUMCON:105:1,2007-01-12T14:00:00Z,29.1874,-90.6654,1.0,3.6,80.0,5.7,'11111222,11111222,11111222' 
LUMCON,ioos:station:LUMCON:105:1,2007-01-12T15:00:00Z,29.1874,-90.6654,1.0,5.7,100.0,7.2,'11111222,11111222,11111222' 
LUMCON,ioos:station:LUMCON:105:1,2007-01-12T16:00:00Z,29.1874,-90.6654,1.0,5.1,110.0,8.2,'11111222,11111222,11111222' 
LUMCON,ioos:station:LUMCON:105:1,2007-01-12T17:00:00Z,29.1874,-90.6654,1.0,5.7,110.0,8.2,'11111222,11111222,11111222' 
LUMCON,ioos:station:LUMCON:105:1,2007-01-12T18:00:00Z,29.1874,-90.6654,1.0,5.7,120.0,8.8,'11111222,11111222,11111222' 
LUMCON,ioos:station:LUMCON:105:1,2007-01-12T19:00:00Z,29.1874,-90.6654,1.0,6.2,120.0,8.8,'11111222,11111222,11111222' 
LUMCON,ioos:station:LUMCON:105:1,2007-01-12T20:00:00Z,29.1874,-90.6654,1.0,6.7,120.0,8.8,'11111222,11111222,11111222' 
LUMCON,ioos:station:LUMCON:105:1,2007-01-12T21:00:00Z,29.1874,-90.6654,1.0,6.2,120.0,8.8,'11111222,11111222,11111222' 